[[{"header":{"parameterUnit":"m.s-1","parameterCategory":1,"la1":30.2991,"la2":30.254,"lo1":-89.0895,"lo2":-89.0444,"dy":0.0017,"dx":0.0017,"nx":28,"ny":28,"refTime":"2025-04-03T21:00:00:Z","depth":0,"parameterNumber":2,"parameterNumberName":"U-component_of_WINDS"},"data":[0,0,0,0,0,0,0,0,0,0,0,0,0,0,0,0,0,0,0,0,0,0,0,0,0,0,0,0,0,0,0,0,0,0,0,0,0,0,0,0,0,0,0,0,0,0,0,0,0,0,0,0,0,0,0,0,0,0,-5.4426,-5.4427,0,-5.4545,-5.4546,-5.4548,-5.4549,-5.4548,-5.4546,-5.4545,-5.4663,-5.4668,-5.4672,0,0,0,0,0,0,0,0,0,0,0,0,0,-5.4197,-5.4202,-5.4426,-5.4427,-5.4429,-5.4545,-5.4546,-5.4548,-5.4549,-5.4548,-5.4546,-5.4544,-5.4662,-5.4667,-5.4673,0,0,0,0,0,0,0,0,0,0,0,0,0,-5.4304,-5.4203,-5.4425,-5.4443,-5.4446,-5.4544,-5.4546,-5.4548,-5.455,-5.4547,-5.4545,-5.4543,-5.466,-5.4667,-5.4674,-5.4761,0,0,-5.4694,-5.4697,0,0,0,0,0,0,0,0,-5.4298,-5.4313,-5.4439,-5.4442,-5.4446,-5.453,-5.4509,-5.4619,-5.455,-5.451,-5.4545,-5.4542,-5.4621,-5.4631,-5.4658,-5.4766,-5.4771,-5.4695,-5.4699,-5.4702,-5.4704,0,0,0,0,0,0,0,-5.4291,-5.4308,-5.4473,-5.4441,-5.4445,-5.4445,-5.4458,-5.453,-5.4576,-5.4514,-5.4514,-5.4528,-5.4622,-5.4651,-5.466,-5.4773,-5.4695,-5.4701,-5.4705,-5.4708,-5.4959,-5.4961,0,0,0,0,0,0,-5.428,-5.4302,-5.4469,-5.4476,-5.4365,-5.4451,-5.4465,-5.4505,-5.4576,-5.4584,-5.453,-5.4528,-5.4641,-5.4653,-5.4665,-5.477,-5.4702,-5.4708,-5.4712,-5.4956,-5.4959,-5.4962,0,0,0,0,0,0,-5.4275,-5.4295,-5.4464,-5.4389,-5.4411,-5.4457,-5.4502,-5.4509,-5.4538,-5.4588,-5.4596,-5.4552,-5.4639,-5.4655,-5.4737,-5.4774,-5.4712,-5.4718,-5.4953,-5.4957,-5.4961,-5.4983,0,0,0,0,0,0,-5.4269,-5.4293,-5.4327,-5.439,-5.4415,-5.4535,-5.4504,-5.4513,-5.455,-5.4548,-5.461,-5.4619,-5.4639,-5.4727,-5.4744,-5.4783,-5.4723,-5.495,-5.4955,-5.496,-5.4979,-5.4987,-5.4994,0,0,0,0,0,-5.4261,-5.4328,-5.4329,-5.4349,-5.4458,-5.4537,-5.4551,-5.4574,-5.4553,-5.4587,-5.462,-5.4617,-5.4769,-5.4735,-5.4754,-5.4796,-5.4948,-5.4954,-5.4959,-5.4975,-5.4985,-5.4994,0,0,0,0,0,0,-5.4267,-5.4336,-5.4338,-5.4428,-5.4477,-5.4537,-5.458,-5.4584,-5.4638,-5.4634,-5.4659,-5.4674,-5.4755,-5.4784,-5.4746,-5.4884,-5.4855,-5.4865,-5.4861,-5.4871,-5.4878,-5.4868,-5.4729,0,0,0,0,0,-5.4279,-5.4338,-5.4396,-5.4469,-5.4494,-5.4533,-5.4568,-5.4582,-5.4633,-5.4653,-5.4692,-5.4741,-5.48,-5.4837,-5.4894,-5.4985,-5.4997,-5.5023,-5.503,-5.5036,-5.5043,-5.5092,-5.5104,-5.4981,-5.4981,-5.4981,0,0,-5.4304,-5.4349,-5.4385,-5.4472,-5.4511,-5.4571,-5.455,-5.4614,-5.4659,-5.4663,-5.4742,-5.4773,-5.4829,-5.4915,-5.4955,-5.4942,-5.5081,-5.5044,-5.5048,-5.5052,-5.51,-5.5111,-5.5121,-5.4985,-5.4984,-5.4984,0,0,-5.4379,-5.442,-5.4486,-5.4526,-5.4587,-5.4613,-5.4629,-5.469,-5.471,-5.4791,-5.4795,-5.4849,-5.495,-5.4989,-5.5023,-5.5116,-5.5115,-5.5134,-5.5172,-5.5219,-5.5229,-5.5238,-5.5269,-5.528,-5.5142,-5.5142,-5.5142,0,-5.4401,-5.4492,-5.4519,-5.4583,-5.4621,-5.463,-5.4696,-5.4734,-5.4809,-5.4835,-5.482,-5.4947,-5.4986,-5.5081,-5.5104,-5.5132,-5.515,-5.5125,-5.5226,-5.5235,-5.5243,-5.5273,-5.5285,-5.5144,-5.5144,-5.5143,-5.5143,0,-5.4517,-5.458,-5.4626,-5.47,-5.4743,-5.4808,-5.4843,-5.4884,-5.4895,-5.4923,-5.5005,-5.5052,-5.5119,-5.5143,-5.5154,-5.524,-5.523,-5.5221,-5.5192,-5.5256,-5.5285,-5.5297,-5.5146,-5.5146,-5.5145,-5.5145,0,0,-5.4595,-5.4685,-5.4701,-5.4735,-5.4804,-5.4853,-5.4919,-5.4985,-5.5019,-5.5072,-5.5126,-5.5213,-5.5205,-5.5243,-5.5259,-5.5301,-5.537,-5.5286,-5.5288,-5.5298,-5.5467,-5.5471,-5.5484,-5.5371,-5.5374,-5.5376,-5.5461,0,-5.4676,-5.4793,-5.482,-5.492,-5.4979,-5.4989,-5.5047,-5.5095,-5.5123,-5.5176,-5.5208,-5.5268,-5.5254,-5.5276,-5.5319,-5.5353,-5.5404,-5.5347,-5.5421,-5.5423,-5.5403,-5.55,-5.5505,-5.5583,-5.5473,-5.5475,-5.5476,0,-5.4785,-5.4841,-5.4948,-5.501,-5.5035,-5.5086,-5.5149,-5.5201,-5.5256,-5.5274,-5.5318,-5.533,-5.5398,-5.5369,-5.5462,-5.5423,-5.5456,-5.5477,-5.5481,-5.5486,-5.5451,-5.5505,-5.5609,-5.5619,-5.5495,-5.5493,-5.5492,0,-5.4829,-5.4932,-5.5009,-5.5038,-5.5113,-5.5148,-5.5181,-5.5234,-5.5272,-5.5328,-5.5353,-5.5416,-5.5449,-5.5497,-5.5526,-5.5502,-5.5617,-5.559,-5.5632,-5.5631,-5.5652,-5.565,-5.576,-5.5678,-5.5678,-5.5678,-5.5678,0,-5.4914,-5.4979,-5.503,-5.5077,-5.5149,-5.518,-5.525,-5.5283,-5.5331,-5.5384,-5.5398,-5.5447,-5.5483,-5.5537,-5.556,-5.5634,-5.5649,-5.5664,-5.5669,-5.5662,-5.5659,-5.568,-5.5675,-5.5681,-5.568,-5.568,-5.5679,0,-5.4974,-5.5011,-5.5096,-5.516,-5.5178,-5.5228,-5.5283,-5.5329,-5.5359,-5.5426,-5.5444,-5.5491,-5.5555,-5.559,-5.567,-5.5686,-5.5768,-5.5771,-5.5749,-5.575,-5.5789,-5.5784,-5.5914,-5.5932,-5.5841,-5.5842,-5.5842,0,-5.5024,-5.5074,-5.5145,-5.5182,-5.5216,-5.5276,-5.5315,-5.5348,-5.5389,-5.5457,-5.5494,-5.556,-5.5614,-5.5718,-5.5758,-5.582,-5.5823,-5.5865,-5.5832,-5.5823,-5.5821,-5.5816,-5.5821,-5.5869,-5.587,-5.587,-5.5871,0,-5.511,-5.5126,-5.5183,-5.5248,-5.5296,-5.5348,-5.5399,-5.5428,-5.547,-5.5515,-5.5582,-5.5624,-5.5708,-5.5773,-5.5838,-5.5871,-5.5877,-5.5882,-5.5894,-5.5885,-5.5869,-5.5876,-5.5761,-5.5877,-5.5877,-5.5876,-5.5876,-5.5876,-5.5165,-5.5209,-5.5266,-5.533,-5.5373,-5.5421,-5.5467,-5.5504,-5.5561,-5.5632,-5.5648,-5.5719,-5.5773,-5.5862,-5.5898,-5.5953,-5.5944,-5.5963,-5.5967,-5.597,-5.5971,-5.5864,-5.5965,-5.5965,-5.5965,-5.5965,-5.5965,0,-5.5248,-5.5286,-5.5345,-5.5417,-5.5467,-5.5472,-5.5529,-5.557,-5.5633,-5.5684,-5.5738,-5.5815,-5.5879,-5.5925,-5.599,-5.6025,-5.603,-5.6041,-5.6037,-5.6044,-5.5976,-5.5957,-5.6036,-5.6036,-5.6036,-5.6036,-5.6036,-5.6036,-5.5298,-5.5373,-5.5397,-5.5494,-5.5531,-5.5601,-5.5634,-5.5678,-5.5719,-5.5805,-5.5858,-5.5889,-5.5939,-5.6007,-5.6066,-5.6078,-5.61,-5.611,-5.6122,-5.6057,-5.6049,-5.6042,-5.6024,-5.6116,-5.6116,-5.6186,-5.6186,-5.6187]},{"header":{"parameterUnit":"m.s-1","parameterCategory":1,"la1":30.2991,"la2":30.254,"lo1":-89.0895,"lo2":-89.0444,"dy":0.0017,"dx":0.0017,"nx":28,"ny":28,"refTime":"2025-04-03T21:00:00:Z","depth":0,"parameterNumber":3,"parameterNumberName":"V-component_of_WINDS"},"data":[0,0,0,0,0,0,0,0,0,0,0,0,0,0,0,0,0,0,0,0,0,0,0,0,0,0,0,0,0,0,0,0,0,0,0,0,0,0,0,0,0,0,0,0,0,0,0,0,0,0,0,0,0,0,0,0,0,0,3.8072,3.8073,0,3.819,3.8191,3.8192,3.8226,3.8226,3.8225,3.8225,3.8342,3.8346,3.835,0,0,0,0,0,0,0,0,0,0,0,0,0,3.7877,3.7881,3.8072,3.8073,3.8075,3.8189,3.8191,3.8192,3.8227,3.8226,3.8225,3.8224,3.8341,3.8345,3.835,0,0,0,0,0,0,0,0,0,0,0,0,0,3.7975,3.7882,3.8072,3.8106,3.811,3.8189,3.8191,3.8193,3.8227,3.8226,3.8225,3.8224,3.834,3.8345,3.8351,3.8403,0,0,3.8368,3.837,0,0,0,0,0,0,0,0,3.7969,3.7982,3.8099,3.8104,3.8108,3.8192,3.8165,3.8263,3.8227,3.8182,3.8225,3.8224,3.8293,3.8302,3.8326,3.8409,3.8414,3.8368,3.8371,3.8374,3.8375,0,0,0,0,0,0,0,3.7962,3.7977,3.8118,3.8101,3.8107,3.8115,3.8128,3.8184,3.8241,3.8186,3.8189,3.8202,3.8295,3.8321,3.8329,3.8416,3.8368,3.8373,3.8376,3.8378,3.8551,3.8552,0,0,0,0,0,0,3.795,3.7971,3.8115,3.8122,3.8035,3.8119,3.8134,3.8166,3.8241,3.8251,3.8203,3.8204,3.8312,3.8323,3.8334,3.8403,3.8374,3.8379,3.8382,3.855,3.8551,3.8553,0,0,0,0,0,0,3.7946,3.7962,3.811,3.8047,3.8067,3.8124,3.816,3.8169,3.8195,3.8254,3.8264,3.8219,3.8312,3.8326,3.8387,3.8408,3.8381,3.8387,3.8548,3.855,3.8552,3.8541,0,0,0,0,0,0,3.794,3.7961,3.7981,3.8048,3.807,3.8161,3.8161,3.8172,3.8205,3.8206,3.8271,3.8281,3.8312,3.8378,3.8392,3.8415,3.8391,3.8547,3.8549,3.8552,3.8539,3.8542,3.8544,0,0,0,0,0,3.7933,3.7972,3.7982,3.7999,3.8097,3.8162,3.8175,3.8211,3.8206,3.8228,3.8266,3.8279,3.8403,3.8384,3.84,3.8425,3.8546,3.8549,3.8551,3.8538,3.8541,3.8544,0,0,0,0,0,0,3.7904,3.7981,3.7993,3.8055,3.8102,3.8168,3.8196,3.8212,3.8261,3.826,3.8302,3.8316,3.8375,3.8405,3.8383,3.8482,3.8475,3.8481,3.8459,3.8463,3.8465,3.8457,3.8395,0,0,0,0,0,3.7906,3.7953,3.8017,3.8065,3.8088,3.8138,3.8167,3.8191,3.8241,3.8261,3.8304,3.8352,3.8402,3.8434,3.8483,3.8544,3.856,3.8569,3.8571,3.8572,3.8578,3.8615,3.8621,3.8562,3.8562,3.8562,0,0,3.7908,3.7956,3.7982,3.8061,3.81,3.8148,3.8154,3.8204,3.8241,3.8268,3.833,3.8363,3.8419,3.8481,3.8511,3.8509,3.8598,3.8576,3.8577,3.8581,3.8619,3.8624,3.8629,3.8564,3.8564,3.8563,0,0,3.7937,3.7977,3.8024,3.8064,3.8124,3.8157,3.8168,3.8233,3.8257,3.8319,3.8342,3.8386,3.847,3.851,3.8542,3.859,3.8605,3.8605,3.8617,3.8653,3.8658,3.8662,3.8682,3.8688,3.8609,3.8609,3.8609,0,3.7932,3.8007,3.8045,3.8095,3.813,3.8159,3.8207,3.8244,3.8316,3.834,3.8337,3.8446,3.8486,3.8559,3.8572,3.8595,3.861,3.8598,3.8654,3.8659,3.8664,3.8683,3.869,3.8609,3.8609,3.8609,3.8609,0,3.7999,3.805,3.808,3.8152,3.819,3.8238,3.8285,3.8319,3.834,3.8374,3.8438,3.8487,3.8548,3.8567,3.8587,3.8645,3.8642,3.8646,3.864,3.8668,3.8687,3.8695,3.8609,3.8609,3.8609,3.8609,0,0,3.8012,3.8107,3.8118,3.8153,3.8223,3.8263,3.8314,3.8375,3.8404,3.8454,3.8499,3.8571,3.8577,3.8612,3.8637,3.8669,3.8708,3.867,3.8672,3.8677,3.8777,3.8775,3.8783,3.8718,3.8719,3.872,3.8773,0,3.8052,3.8145,3.8183,3.8258,3.8308,3.8337,3.8382,3.843,3.8464,3.8511,3.8547,3.8599,3.8601,3.8623,3.8656,3.8696,3.8729,3.8692,3.8761,3.8763,3.8747,3.8792,3.879,3.8837,3.8781,3.8782,3.8783,0,3.8111,3.8164,3.8245,3.8312,3.8334,3.8374,3.8435,3.8479,3.8535,3.8557,3.8599,3.8623,3.8678,3.8669,3.8747,3.8721,3.8751,3.8776,3.8778,3.8787,3.8775,3.8804,3.8853,3.8861,3.8794,3.8793,3.8792,0,3.8116,3.8207,3.8268,3.8296,3.8376,3.8403,3.8438,3.8493,3.8528,3.8581,3.8605,3.8663,3.8695,3.874,3.878,3.8769,3.8855,3.8848,3.8876,3.8876,3.8894,3.8892,3.895,3.891,3.891,3.891,3.891,0,3.8158,3.8206,3.8272,3.831,3.8366,3.8409,3.8464,3.85,3.8549,3.8595,3.8624,3.8666,3.8715,3.8764,3.8795,3.8857,3.887,3.8891,3.8899,3.8889,3.8887,3.891,3.8909,3.8912,3.8911,3.8911,3.8911,0,3.8173,3.8218,3.8287,3.8358,3.8377,3.8416,3.8476,3.8515,3.855,3.8608,3.8624,3.8681,3.874,3.8784,3.886,3.8881,3.8948,3.8954,3.8929,3.8934,3.8961,3.8958,3.9036,3.905,3.8999,3.9,3.9,0,3.8197,3.8236,3.8312,3.8345,3.838,3.8433,3.847,3.8515,3.8553,3.8621,3.8652,3.8714,3.8766,3.8859,3.8907,3.8966,3.8976,3.8999,3.8985,3.8975,3.8979,3.8977,3.8983,3.9002,3.9002,3.9002,3.9002,0,3.8236,3.8258,3.8311,3.8373,3.8417,3.8468,3.8519,3.8545,3.8598,3.8639,3.8702,3.8742,3.8822,3.8884,3.8948,3.8984,3.9003,3.9007,3.9017,3.9008,3.8993,3.9004,3.8937,3.9005,3.9005,3.9004,3.9004,3.9004,3.8258,3.8295,3.8356,3.8415,3.8459,3.8506,3.8547,3.8589,3.8642,3.8712,3.8734,3.8799,3.8857,3.8946,3.8983,3.9035,3.9034,3.9048,3.9052,3.9055,3.9056,3.8984,3.9046,3.9046,3.9046,3.9046,3.9046,0,3.8301,3.8342,3.8396,3.8468,3.8515,3.853,3.8588,3.8627,3.8684,3.8737,3.8789,3.8862,3.8922,3.8976,3.9039,3.9071,3.9081,3.9086,3.9085,3.9093,3.9051,3.9038,3.9077,3.9077,3.9077,3.9077,3.9077,3.9077,3.8329,3.8394,3.8423,3.851,3.8551,3.8616,3.8649,3.8694,3.8736,3.8817,3.8869,3.8904,3.8958,3.9026,3.9083,3.9097,3.912,3.9123,3.9139,3.9099,3.9096,3.9092,3.908,3.9127,3.9127,3.9177,3.9178,3.9178]}]]